Погода в Зеленом Боре

Россия / Амурская область     49°41′02″N   128°38′13″E
темп.,
°C
ветер,
м/с
пор.,
м/с
влажн.,
%
обл.,
%
осадки,
мм/ч
давл.,
гПа
погр.,
м
22 октября, пт
пт2200:00−1сз36833 0.0 102089
03:00−1сз37855 0.0 1020109
06:00−2сз35845 0.0 102182
09:00+2зсз24705 0.0 1022183
12:00+7зсз34475 0.0 1021750
15:00+8з45455 0.0 10201039
18:00+4з33615 0.0 102016
21:00+3з35765 0.0 102071
23 октября, сб
сб2300:00+2з34815 0.0 102058
03:00+1зюз34815 0.0 102047
06:00+1зюз33815 0.0 102043
09:00+4зюз48692 0.0 1020239
12:00+9з56483 0.0 1019577
15:00+12з47435 0.0 1018929
18:00+6з49620 0.0 1019152
21:00+4з38750 0.0 1020130
24 октября, вс
вс2400:00+3з34790 0.0 101957
03:00+2з22810 0.0 101920
06:00+1зюз22820 0.0 101910
09:00+4юз12680 0.0 1020119
12:00+9юз23505 0.0 1019506
15:00+11юз35445 0.0 1017897
18:00+7ююз33600 0.0 101830
21:00+5ююз33660 0.0 101940
25 октября, пн
пн2500:00+3ююз33730 0.0 101826
03:00+2ююз33740 0.0 101730
06:00+2ю33740 0.0 101739
09:00+4ю37630 0.0 1017212
12:00+10ююз46443 0.0 1015660
15:00+11юз46415 0.0 1013981
18:00+7ююз34580 0.0 101440
21:00+5ююз34695 0.0 101459
26 октября, вт
вт2600:00+4ююз33775 0.0 101332
03:00+3ю33800 0.0 101330
06:00+2ююв33850 0.0 101234
09:00+4ю35745 0.0 1012178
12:00+9юз4552100 0.0 1011683
15:00+10зюз3547100 0.0 10101009
18:00+6сз3564100 0.0 101187
21:00+4сз3775100 0.0 1011217